Regional Weather Roundup
Issued by NWS

Home | Current Version | Previous Version | Text Only | Print | Product List | Glossary Off
Versions: 1 2 3 4 5 6 7 8 9 10 11 12 13 14 15 16 17 18 19 20 21 22 23 24 25 26 27 28 29 30 31 32 33 34 35 36 37 38 39 40 41 42 43 44 45 46 47 48 49 50

000
ASUS45 KABQ 291210
RWRNM
NEW MEXICO REGIONAL WEATHER ROUNDUP
NATIONAL WEATHER SERVICE ALBUQUERQUE NM
600 AM MDT MON MAY 29 2017

NOTE: "FAIR" MEANS FEW OR NO CLOUDS BELOW 12,000 FEET AGL WITH NO
       SIGNIFICANT WEATHER OR OBSTRUCTIONS TO VISION.

      THIS PRODUCT IS RELEASED AS TWO VERSIONS.  ONE VERSION NEAR
      THE TOP OF THE HOUR CONTAINING PRELIMINARY DATA FROM ALBUQUERQUE
      AND OTHER STATIONS.  A FINAL VERSION WITH ADDITIONAL DATA IS
      ISSUED ABOUT 10 MINUTES AFTER THE HOUR.

NMZ501-503-504-510>518-291300-
NORTHWEST PLATEAU/NORTHCENTRAL MOUNTAINS

CITY           SKY/WX    TMP DP  RH WIND       PRES   REMARKS
FARMINGTON     FAIR      40  23  50 E6        30.18R
6HR MIN TEMP:  40; 6HR MAX TEMP:  52;

LOS ALAMOS     FAIR      51  31  45 SW8       30.30R
SANTA FE       FAIR      56  34  43 SE16      30.24R
6HR MIN TEMP:  56; 6HR MAX TEMP:  61;

TAOS           FAIR      45  25  45 E8        30.30S
ANGEL FIRE     FAIR      28  26  91 CALM      30.38R

$$
NMZ402-403-502-505>509-291300-
WESTCENTRAL MOUNTAINS/SOUTHWEST MOUNTAINS

CITY           SKY/WX    TMP DP  RH WIND       PRES   REMARKS
GALLUP         FAIR      40  25  55 CALM      30.23R
6HR MIN TEMP:  38; 6HR MAX TEMP:  55;

GRANTS         FAIR      36  27  69 NW6       30.26R WCI  32
SILVER CITY    FAIR      56  34  43 E7        30.17R

$$
NMZ407-409-411-412-291300-
SOUTHERN DESERTS

CITY           SKY/WX    TMP DP  RH WIND       PRES   REMARKS
DEMING         FAIR      61  39  44 NE9       30.11S
6HR MIN TEMP:  61; 6HR MAX TEMP:  73;

LAS CRUCES     FAIR      64  43  47 SE8       30.13R
HOLLOMAN AFB   FAIR      55  36  49 NE6       30.16R
ALAMOGORDO     FAIR      57  36  44 N3        30.13S
T OR C         FAIR      58  35  42 NW7       30.15R
6HR MIN TEMP:  57; 6HR MAX TEMP:  70; 6HR PCP: TRACE;


$$
NMZ519>523-291300-
CENTRAL VALLEYS/CENTRAL HIGHLANDS

CITY           SKY/WX    TMP DP  RH WIND       PRES   REMARKS
ALBUQUERQUE    FAIR      59  35  40 NE6       30.20R
6HR MIN TEMP:  58; 6HR MAX TEMP:  68;

DOUBLE EAGLE   PTCLDY    46  32  57 VRB5      30.23R
MORIARTY ARPT  FAIR      40  33  73 NW6       30.27R
6HR MIN TEMP:  40; 6HR MAX TEMP:  57;

CLINES CORNERS FAIR      46  31  55 E8        30.30R
6HR MIN TEMP:  44; 6HR MAX TEMP:  50;

BELEN          FAIR      58  38  46 SE5       30.19R
6HR MIN TEMP:  56; 6HR MAX TEMP:  65;

SOCORRO        FAIR      55  36  49 SW3       30.16R
6HR MIN TEMP:  55; 6HR MAX TEMP:  65;


$$
NMZ524>526-539-540-291300-
SOUTHCENTRAL MOUNTAINS

CITY           SKY/WX    TMP DP  RH WIND       PRES   REMARKS
RUIDOSO        FAIR      50  36  57 CALM      30.32R

$$
NMZ527>531-291300-
NORTHEAST HIGHLANDS/NORTHEAST PLAINS

CITY           SKY/WX    TMP DP  RH WIND       PRES   REMARKS
LAS VEGAS      FAIR      43  30  60 W3        30.30R
6HR MIN TEMP:  41; 6HR MAX TEMP:  51;

RATON          FAIR      43  32  65 N10       30.28R
6HR MIN TEMP:  38; 6HR MAX TEMP:  48;

CLAYTON        CLOUDY    53  37  54 W8        30.23R
6HR MIN TEMP:  44; 6HR MAX TEMP:  54;


$$
NMZ532>537-291300-
EASTCENTRAL PLAINS

CITY           SKY/WX    TMP DP  RH WIND       PRES   REMARKS
SANTA ROSA     FAIR      49  34  54 NE6       30.22R
TUCUMCARI      FAIR      50  41  71 NW6       30.19R
6HR MIN TEMP:  48; 6HR MAX TEMP:  58;

CANNON AFB     FAIR      53  37  55 E6        30.22R
6HR MIN TEMP:  52; 6HR MAX TEMP:  60;

CLOVIS AIRPORT FAIR      50  34  53 E3        30.21R

$$
NMZ028-029-538-291300-
SOUTHEAST PLAINS

CITY           SKY/WX    TMP DP  RH WIND       PRES   REMARKS
ROSWELL        FAIR      59  41  51 S5        30.17R
6HR MIN TEMP:  56; 6HR MAX TEMP:  67;

ARTESIA        FAIR      57  43  58 CALM      30.17R
CARLSBAD       FAIR      59  46  62 S9        30.14R
6HR MIN TEMP:  58; 6HR MAX TEMP:  66;

HOBBS          CLEAR     54  39  58 NE3       30.18S


$$



USA.gov is the U.S. government's official web portal to all federal, state and local government web resources and services.